UR3PDA-3 Weather Reports


time (UTC)temp
C
wind
direction
speed
KPH
gust
KPH
rain 1hr
cm
rain 24hr
cm
rain mn
cm
humidity
%
barometer
mb
20260506154558 29 0.0 0.0 0.00 0.00 0.00 10 979.6
20260506153958 30 0.0 0.0 0.00 0.00 0.00 28 979.8
20260506153357 29 0.0 0.0 0.00 0.00 0.00 979.8
20260506152757 28 0.0 0.0 0.00 0.00 0.00 14 979.8
20260506152156 29 0.0 0.0 0.00 0.00 0.00 23 979.9
20260506151555 29 0.0 0.0 0.00 0.00 0.00 14 979.9
20260506150955 28 0.0 0.0 0.00 0.00 0.00 980.0
20260506150354 27 0.0 0.0 0.00 0.00 0.00 29 980.0
20260506145753 27 0.0 0.0 0.00 0.00 0.00 24 979.9
20260506145153 28 0.0 0.0 0.00 0.00 0.00 16 979.9
20260506144552 28 0.0 0.0 0.00 0.00 0.00 20 979.9
20260506143951 28 0.0 0.0 0.00 0.00 0.00 14 979.9
20260506143351 29 0.0 0.0 0.00 0.00 0.00 23 979.9
20260506142750 31 0.0 0.0 0.00 0.00 0.00 14 979.9
20260506142149 30 0.0 0.0 0.00 0.00 0.00 19 980.0
20260506141549 30 0.0 0.0 0.00 0.00 0.00 28 980.0
20260506140948 31 0.0 0.0 0.00 0.00 0.00 28 980.0
20260506140347 31 0.0 0.0 0.00 0.00 0.00 26 979.9
20260506135747 31 0.0 0.0 0.00 0.00 0.00 11 980.0
20260506135146 31 0.0 0.0 0.00 0.00 0.00 14 979.9
20260506134545 31 0.0 0.0 0.00 0.00 0.00 23 980.0
20260506133945 32 0.0 0.0 0.00 0.00 0.00 10 980.0
20260506133342 32 0.0 0.0 0.00 0.00 0.00 10 980.0
20260506132742 32 0.0 0.0 0.00 0.00 0.00 10 980.2
20260506132141 31 0.0 0.0 0.00 0.00 0.00 13 980.3
20260506131541 31 0.0 0.0 0.00 0.00 0.00 11 980.3
20260506130941 32 0.0 0.0 0.00 0.00 0.00 13 980.2
20260506130340 32 0.0 0.0 0.00 0.00 0.00 13 980.3
20260506125740 32 0.0 0.0 0.00 0.00 0.00 22 980.4
20260506125139 32 0.0 0.0 0.00 0.00 0.00 18 980.3
20260506124539 31 0.0 0.0 0.00 0.00 0.00 13 980.4
20260506123939 31 0.0 0.0 0.00 0.00 0.00 18 980.5
20260506123338 31 0.0 0.0 0.00 0.00 0.00 23 980.7
20260506122738 32 0.0 0.0 0.00 0.00 0.00 22 980.6
20260506122138 32 0.0 0.0 0.00 0.00 0.00 13 980.6
20260506121538 32 0.0 0.0 0.00 0.00 0.00 22 980.7
20260506120937 32 0.0 0.0 0.00 0.00 0.00 10 980.7
20260506120337 32 0.0 0.0 0.00 0.00 0.00 980.8
20260506115736 32 0.0 0.0 0.00 0.00 0.00 22 980.8
20260506115136 32 0.0 0.0 0.00 0.00 0.00 18 980.8
20260506114536 32 0.0 0.0 0.00 0.00 0.00 981.0
20260506113935 32 0.0 0.0 0.00 0.00 0.00 18 980.8
20260506113335 32 0.0 0.0 0.00 0.00 0.00 13 981.0
20260506112734 31 0.0 0.0 0.00 0.00 0.00 28 980.9
20260506112134 30 0.0 0.0 0.00 0.00 0.00 23 981.0
20260506111534 32 0.0 0.0 0.00 0.00 0.00 13 981.1
20260506110933 31 0.0 0.0 0.00 0.00 0.00 19 981.1
20260506110333 31 0.0 0.0 0.00 0.00 0.00 19 981.3
20260506105732 33 0.0 0.0 0.00 0.00 0.00 22 981.3
20260506105131 33 0.0 0.0 0.00 0.00 0.00 25 981.3
20260506104531 32 0.0 0.0 0.00 0.00 0.00 13 981.4
20260506103930 31 0.0 0.0 0.00 0.00 0.00 19 981.5
20260506103329 33 0.0 0.0 0.00 0.00 0.00 981.4
20260506102729 32 0.0 0.0 0.00 0.00 0.00 10 981.5
20260506102128 33 0.0 0.0 0.00 0.00 0.00 26 981.5
20260506101527 33 0.0 0.0 0.00 0.00 0.00 26 981.5
20260506100927 33 0.0 0.0 0.00 0.00 0.00 22 981.6
20260506100326 32 0.0 0.0 0.00 0.00 0.00 22 981.6
20260506095726 32 0.0 0.0 0.00 0.00 0.00 26 981.6
20260506095125 32 0.0 0.0 0.00 0.00 0.00 18 981.6
20260506094524 31 0.0 0.0 0.00 0.00 0.00 981.7
20260506093923 32 0.0 0.0 0.00 0.00 0.00 981.7
20260506093323 32 0.0 0.0 0.00 0.00 0.00 26 981.7
20260506092722 32 0.0 0.0 0.00 0.00 0.00 981.7
20260506092122 31 0.0 0.0 0.00 0.00 0.00 10 981.8
20260506091521 31 0.0 0.0 0.00 0.00 0.00 20 981.8
20260506090921 31 0.0 0.0 0.00 0.00 0.00 24 981.8
20260506090320 30 0.0 0.0 0.00 0.00 0.00 20 981.9
20260506085719 29 0.0 0.0 0.00 0.00 0.00 28 981.8
20260506085119 30 0.0 0.0 0.00 0.00 0.00 981.9
20260506084518 29 0.0 0.0 0.00 0.00 0.00 14 981.9
20260506083917 29 0.0 0.0 0.00 0.00 0.00 981.9
20260506083317 29 0.0 0.0 0.00 0.00 0.00 14 981.8
20260506082716 29 0.0 0.0 0.00 0.00 0.00 10 981.8
20260506082115 28 0.0 0.0 0.00 0.00 0.00 14 981.9
20260506081515 28 0.0 0.0 0.00 0.00 0.00 25 982.0
20260506080914 27 0.0 0.0 0.00 0.00 0.00 25 982.0
20260506080313 28 0.0 0.0 0.00 0.00 0.00 25 982.0
20260506073310 27 0.0 0.0 0.00 0.00 0.00 42 982.1
20260506072710 27 0.0 0.0 0.00 0.00 0.00 40 982.2
20260506072109 27 0.0 0.0 0.00 0.00 0.00 40 982.2
20260506071508 26 0.0 0.0 0.00 0.00 0.00 40 982.2
20260506070908 26 0.0 0.0 0.00 0.00 0.00 982.2
20260506070307 26 0.0 0.0 0.00 0.00 0.00 982.2
20260506062103 24 0.0 0.0 0.00 0.00 0.00 982.2
20260506061502 24 0.0 0.0 0.00 0.00 0.00 982.3
20260506060902 23 0.0 0.0 0.00 0.00 0.00 10 982.3
20260506060301 23 0.0 0.0 0.00 0.00 0.00 11 982.2
20260506050855 20 0.0 0.0 0.00 0.00 0.00 17 982.1
20260506050254 20 0.0 0.0 0.00 0.00 0.00 18 982.1
20260506045053 18 0.0 0.0 0.00 0.00 0.00 19 982.2
20260506044452 18 0.0 0.0 0.00 0.00 0.00 19 982.1
20260506043852 17 0.0 0.0 0.00 0.00 0.00 20 982.1
20260506043251 17 0.0 0.0 0.00 0.00 0.00 19 982.1
20260506042650 17 0.0 0.0 0.00 0.00 0.00 19 982.1
20260506042050 16 0.0 0.0 0.00 0.00 0.00 20 982.1
20260506041449 16 0.0 0.0 0.00 0.00 0.00 20 982.0
20260506040848 15 0.0 0.0 0.00 0.00 0.00 20 982.0
20260506040248 15 0.0 0.0 0.00 0.00 0.00 20 982.0
20260506035647 15 0.0 0.0 0.00 0.00 0.00 20 982.0
20260506035046 15 0.0 0.0 0.00 0.00 0.00 20 981.9
20260506034446 14 0.0 0.0 0.00 0.00 0.00 22 981.9
20260506033845 13 0.0 0.0 0.00 0.00 0.00 22 981.9
20260506033245 13 0.0 0.0 0.00 0.00 0.00 22 981.9
20260506032043 12 0.0 0.0 0.00 0.00 0.00 22 981.9
20260506031443 12 0.0 0.0 0.00 0.00 0.00 22 981.8
20260506030843 12 0.0 0.0 0.00 0.00 0.00 22 981.8
20260506030242 12 0.0 0.0 0.00 0.00 0.00 22 981.7
20260506025041 12 0.0 0.0 0.00 0.00 0.00 22 981.7
20260506024440 12 0.0 0.0 0.00 0.00 0.00 20 981.7
20260506023840 13 0.0 0.0 0.00 0.00 0.00 20 981.7
20260506023239 13 0.0 0.0 0.00 0.00 0.00 20 981.6
20260506022639 13 0.0 0.0 0.00 0.00 0.00 20 981.7
20260506022039 13 0.0 0.0 0.00 0.00 0.00 20 981.7
20260506021438 13 0.0 0.0 0.00 0.00 0.00 20 981.7
20260506020838 13 0.0 0.0 0.00 0.00 0.00 20 981.7
20260506020238 13 0.0 0.0 0.00 0.00 0.00 20 981.6
20260506015637 13 0.0 0.0 0.00 0.00 0.00 20 981.7
20260506015037 13 0.0 0.0 0.00 0.00 0.00 20 981.7
20260506014437 13 0.0 0.0 0.00 0.00 0.00 19 981.6
20260506013836 13 0.0 0.0 0.00 0.00 0.00 19 981.7
20260506013236 13 0.0 0.0 0.00 0.00 0.00 19 981.7
20260506012636 13 0.0 0.0 0.00 0.00 0.00 19 981.6
20260506012035 13 0.0 0.0 0.00 0.00 0.00 19 981.7
20260506011435 13 0.0 0.0 0.00 0.00 0.00 19 981.6
20260506010835 13 0.0 0.0 0.00 0.00 0.00 19 981.6
20260506010234 13 0.0 0.0 0.00 0.00 0.00 19 981.6
20260506005634 13 0.0 0.0 0.00 0.00 0.00 19 981.6
20260506005033 13 0.0 0.0 0.00 0.00 0.00 19 981.6
20260506004433 13 0.0 0.0 0.00 0.00 0.00 19 981.6
20260506003833 13 0.0 0.0 0.00 0.00 0.00 19 981.6
20260506003232 13 0.0 0.0 0.00 0.00 0.00 19 981.6
20260506002632 13 0.0 0.0 0.00 0.00 0.00 20 981.6
20260506002032 13 0.0 0.0 0.00 0.00 0.00 20 981.6
20260506001431 12 0.0 0.0 0.00 0.00 0.00 20 981.6
20260506000831 13 0.0 0.0 0.00 0.00 0.00 20 981.6
20260506000231 13 0.0 0.0 0.00 0.00 0.00 19 981.6
20260505235630 13 0.0 0.0 0.00 0.00 0.00 19 981.6
20260505235030 13 0.0 0.0 0.00 0.00 0.00 19 981.6
20260505234430 13 0.0 0.0 0.00 0.00 0.00 20 981.7
20260505233829 13 0.0 0.0 0.00 0.00 0.00 20 981.7
20260505233229 13 0.0 0.0 0.00 0.00 0.00 19 981.7
20260505232629 13 0.0 0.0 0.00 0.00 0.00 19 981.6
20260505232028 13 0.0 0.0 0.00 0.00 0.00 19 981.7
20260505231428 13 0.0 0.0 0.00 0.00 0.00 19 981.6
20260505230828 13 0.0 0.0 0.00 0.00 0.00 18 981.6
20260505230227 13 0.0 0.0 0.00 0.00 0.00 18 981.7
20260505225627 14 0.0 0.0 0.00 0.00 0.00 18 981.7
20260505225027 14 0.0 0.0 0.00 0.00 0.00 17 981.7
20260505224426 15 0.0 0.0 0.00 0.00 0.00 16 981.7
20260505223826 14 0.0 0.0 0.00 0.00 0.00 16 981.7
20260505223225 15 0.0 0.0 0.00 0.00 0.00 16 981.7
20260505222625 15 0.0 0.0 0.00 0.00 0.00 14 981.7
20260505222025 15 0.0 0.0 0.00 0.00 0.00 14 981.7
20260505221424 15 0.0 0.0 0.00 0.00 0.00 14 981.7
20260505220824 16 0.0 0.0 0.00 0.00 0.00 14 981.7
20260505220224 16 0.0 0.0 0.00 0.00 0.00 14 981.7
20260505215623 16 0.0 0.0 0.00 0.00 0.00 14 981.7
20260505215023 16 0.0 0.0 0.00 0.00 0.00 14 981.6
20260505214423 16 0.0 0.0 0.00 0.00 0.00 14 981.6
20260505213822 16 0.0 0.0 0.00 0.00 0.00 14 981.7
20260505213222 16 0.0 0.0 0.00 0.00 0.00 14 981.7
20260505212622 16 0.0 0.0 0.00 0.00 0.00 14 981.7
20260505212021 16 0.0 0.0 0.00 0.00 0.00 16 981.7
20260505211421 16 0.0 0.0 0.00 0.00 0.00 14 981.7
20260505210821 16 0.0 0.0 0.00 0.00 0.00 14 981.6
20260505210220 16 0.0 0.0 0.00 0.00 0.00 13 981.6
20260505205620 16 0.0 0.0 0.00 0.00 0.00 13 981.6
20260505205019 16 0.0 0.0 0.00 0.00 0.00 14 981.5
20260505204419 16 0.0 0.0 0.00 0.00 0.00 13 981.5
20260505203819 16 0.0 0.0 0.00 0.00 0.00 12 981.5
20260505203218 16 0.0 0.0 0.00 0.00 0.00 11 981.5
20260505202618 17 0.0 0.0 0.00 0.00 0.00 10 981.5
20260505202018 17 0.0 0.0 0.00 0.00 0.00 11 981.4
20260505201417 17 0.0 0.0 0.00 0.00 0.00 10 981.4
20260505200817 17 0.0 0.0 0.00 0.00 0.00 981.4
20260505200217 17 0.0 0.0 0.00 0.00 0.00 981.3
20260505195616 17 0.0 0.0 0.00 0.00 0.00 10 981.3
20260505195016 17 0.0 0.0 0.00 0.00 0.00 10 981.4
20260505194416 17 0.0 0.0 0.00 0.00 0.00 11 981.3
20260505193815 17 0.0 0.0 0.00 0.00 0.00 10 981.3
20260505193215 17 0.0 0.0 0.00 0.00 0.00 981.3
20260505192615 17 0.0 0.0 0.00 0.00 0.00 10 981.2
20260505192014 18 0.0 0.0 0.00 0.00 0.00 981.2
20260505191414 18 0.0 0.0 0.00 0.00 0.00 981.2
20260505190814 18 0.0 0.0 0.00 0.00 0.00 981.2
20260505190213 18 0.0 0.0 0.00 0.00 0.00 981.1
20260505185613 19 0.0 0.0 0.00 0.00 0.00 981.1
20260505185013 20 0.0 0.0 0.00 0.00 0.00 43 981.0
20260505184412 20 0.0 0.0 0.00 0.00 0.00 41 981.0
20260505183812 20 0.0 0.0 0.00 0.00 0.00 31 981.0
20260505183212 21 0.0 0.0 0.00 0.00 0.00 26 980.9
20260505182611 21 0.0 0.0 0.00 0.00 0.00 26 980.9
20260505182012 21 0.0 0.0 0.00 0.00 0.00 26 980.8
20260505181411 21 0.0 0.0 0.00 0.00 0.00 26 980.8
20260505180810 21 0.0 0.0 0.00 0.00 0.00 26 980.7
20260505180210 22 0.0 0.0 0.00 0.00 0.00 26 980.7
20260505175610 22 0.0 0.0 0.00 0.00 0.00 26 980.7
20260505175009 22 0.0 0.0 0.00 0.00 0.00 26 980.7
20260505174409 23 0.0 0.0 0.00 0.00 0.00 26 980.7
20260505173809 23 0.0 0.0 0.00 0.00 0.00 26 980.6
20260505173208 24 0.0 0.0 0.00 0.00 0.00 23 980.6
20260505172608 25 0.0 0.0 0.00 0.00 0.00 17 980.6
20260505172008 25 0.0 0.0 0.00 0.00 0.00 23 980.6
20260505171407 25 0.0 0.0 0.00 0.00 0.00 980.5
20260505170807 26 0.0 0.0 0.00 0.00 0.00 30 980.5
20260505170206 26 0.0 0.0 0.00 0.00 0.00 30 980.6
20260505165606 26 0.0 0.0 0.00 0.00 0.00 24 980.6
20260505165006 26 0.0 0.0 0.00 0.00 0.00 29 980.7
20260505164405 26 0.0 0.0 0.00 0.00 0.00 22 980.7
20260505163805 26 0.0 0.0 0.00 0.00 0.00 22 980.7
20260505163205 27 0.0 0.0 0.00 0.00 0.00 24 980.8
20260505162604 27 0.0 0.0 0.00 0.00 0.00 20 980.8
20260505162004 27 0.0 0.0 0.00 0.00 0.00 12 980.8
20260505161404 27 0.0 0.0 0.00 0.00 0.00 20 980.8
20260505160803 27 0.0 0.0 0.00 0.00 0.00 29 980.8
20260505160203 27 0.0 0.0 0.00 0.00 0.00 12 980.8